User: anonymous   Login
Location: Brabourne
(51.1333°N, 1.0000°E)
Time: 00:21:33
(UTC+00:00)
Language:

Cosmos 2151 - Orbit

View from above orbital plane
View from above orbital plane
View from above satellite
View from above satellite

Ground track
Ground track

The orbit data is extracted from the following two-line orbital elements,

1 21422U 91042A   21263.33123965  .00000216  00000-0  18618-4 0  9990
2 21422  82.5025 205.0529 0015251 131.8658 228.3866 14.92299098619390
Epoch (UTC): 20 September 2021 07:56:59
Eccentricity: 0.0015251
inclination: 82.5025°
perigee height: 580 km
apogee height: 601 km
right ascension of ascending node: 205.0529°
argument of perigee: 131.8658°
revolutions per day: 14.92299098
mean anomaly at epoch: 228.3866°
orbit number at epoch: 61939

The dashed part of the orbit path shows where the satellite is in the earth's shadow,  

DLR